Simultaneous Nadir Overpasses (SNOs) Predictions

Prediction of SNOs between GOES-15 and METOP-A Satellite Orbit:

Table of predicted SNOs for the next 14.0 days since TLE Epoch: 2/11/2017
Index Date Time (GOES-15) GOES-15 Lat,Lon METOP-A Lat,Lon Distance(km) Time Diff (sec)
1 02/12/2017 06:30:01 -0.04,-135.41 -0.02,-135.46 5.61 80
2 02/14/2017 18:28:12 0.04,-135.39 -0.03,-135.01 42.59 80
3 02/16/2017 06:49:52 -0.04,-135.40 -0.97,-139.61 479.61 80
4 02/17/2017 06:26:33 -0.03,-135.40 0.16,-134.62 89.02 80
5 02/18/2017 18:48:03 0.03,-135.37 0.91,-139.17 433.71 80
6 02/19/2017 18:24:44 0.03,-135.36 -0.22,-134.18 134.50 80
7 02/21/2017 06:43:44 -0.03,-135.36 -0.79,-138.78 389.01 80
8 02/22/2017 06:25:45 -0.03,-135.35 0.34,-133.78 178.82 80
9 02/23/2017 18:41:55 0.02,-135.31 0.72,-138.33 345.19 80
10 02/24/2017 18:23:55 0.02,-135.29 -0.41,-133.34 222.26 80




NCC Satellite Simultaneous Nadir Overpasses (SNOs) Prediction Service
